Total_Precipitation_Accumulation
0.55 0.73 1.09 1.47 1.84 2.20 2.35 2.22 1.97 1.85 1.86 1.94 1.93 2.12 2.32 2.44 2.58 2.64 2.63 2.57 2.51 2.43 2.39 2.36 2.26 2.13 2.04 1.89 1.69 1.48 1.30 1.14 0.97 0.90 0.78 0.61 0.44 0.37 0.35 0.32 0.29 0.28 0.28
0.59 0.77 1.15 1.51 1.89 2.19 2.17 2.27 2.35 2.32 2.17 2.38 2.63 2.91 3.17 3.22 3.33 3.51 3.64 3.61 3.39 3.14 2.95 2.79 2.52 2.24 2.10 1.96 1.75 1.50 1.32 1.13 0.95 0.91 0.86 0.68 0.46 0.32 0.24 0.22 0.22 0.21 0.21
0.74 0.88 1.21 1.46 1.72 2.07 2.23 2.36 2.62 2.70 2.61 2.96 3.41 3.85 4.11 4.08 4.05 4.06 4.06 3.92 3.60 3.31 3.06 2.73 2.48 2.27 2.09 1.92 1.76 1.53 1.37 1.13 0.88 0.77 0.79 0.76 0.61 0.38 0.22 0.15 0.13 0.14 0.14
0.56 0.75 1.05 1.41 1.52 1.80 2.02 2.17 2.49 2.84 3.11 3.45 3.91 4.44 4.71 4.83 4.74 4.40 4.08 3.67 3.32 3.03 2.65 2.40 2.28 2.11 1.92 1.76 1.54 1.28 1.12 0.98 0.81 0.69 0.65 0.60 0.53 0.43 0.30 0.18 0.13 0.12 0.12
0.44 0.58 0.73 1.00 1.30 1.57 1.78 1.99 2.26 2.70 3.28 3.93 4.46 4.87 5.17 5.09 4.69 4.22 3.64 3.22 2.85 2.58 2.32 2.08 1.99 1.86 1.63 1.36 1.10 0.91 0.79 0.70 0.63 0.54 0.46 0.40 0.36 0.33 0.32 0.26 0.16 0.12 0.10
0.40 0.45 0.54 0.74 0.99 1.21 1.47 1.77 2.12 2.46 3.01 3.62 4.21 4.57 4.79 4.71 4.29 3.67 3.14 2.76 2.41 2.11 1.84 1.54 1.32 1.15 0.96 0.79 0.66 0.57 0.51 0.47 0.44 0.39 0.33 0.30 0.28 0.26 0.26 0.25 0.19 0.13 0.10
0.43 0.48 0.52 0.62 0.74 0.91 1.15 1.43 1.75 2.17 2.52 2.94 3.48 3.61 3.61 3.40 3.03 2.76 2.52 2.13 1.78 1.48 1.22 0.98 0.82 0.68 0.56 0.48 0.43 0.39 0.35 0.31 0.29 0.26 0.23 0.21 0.20 0.18 0.18 0.20 0.18 0.15 0.11
0.43 0.49 0.54 0.65 0.79 0.92 1.08 1.23 1.46 1.79 2.07 2.26 2.45 2.46 2.32 2.18 2.04 1.87 1.64 1.38 1.14 0.94 0.76 0.60 0.50 0.43 0.37 0.30 0.24 0.19 0.17 0.15 0.15 0.13 0.14 0.13 0.12 0.13 0.15 0.18 0.21 0.21 0.15
0.52 0.56 0.58 0.66 0.78 0.85 0.98 1.03 1.06 1.20 1.30 1.36 1.42 1.48 1.47 1.36 1.29 1.18 1.07 0.96 0.80 0.64 0.51 0.40 0.32 0.26 0.22 0.19 0.16 0.13 0.12 0.12 0.12 0.12 0.11 0.12 0.11 0.12 0.13 0.14 0.18 0.24 0.23
0.63 0.62 0.60 0.62 0.64 0.67 0.72 0.79 0.82 0.82 0.82 0.84 0.84 0.88 0.90 0.86 0.81 0.74 0.68 0.59 0.49 0.40 0.34 0.29 0.24 0.21 0.19 0.17 0.16 0.14 0.13 0.12 0.12 0.12 0.12 0.11 0.10 0.10 0.10 0.11 0.14 0.20 0.28
0.72 0.66 0.64 0.58 0.54 0.54 0.54 0.57 0.62 0.66 0.68 0.67 0.65 0.63 0.61 0.58 0.55 0.51 0.48 0.41 0.34 0.29 0.26 0.24 0.21 0.19 0.17 0.16 0.16 0.16 0.14 0.13 0.11 0.10 0.10 0.10 0.09 0.10 0.10 0.11 0.12 0.15 0.22
0.69 0.62 0.57 0.53 0.47 0.46 0.44 0.44 0.48 0.49 0.51 0.51 0.52 0.50 0.46 0.42 0.40 0.37 0.37 0.36 0.32 0.27 0.25 0.24 0.22 0.19 0.17 0.16 0.15 0.14 0.13 0.12 0.11 0.10 0.10 0.09 0.09 0.10 0.09 0.11 0.12 0.14 0.21
0.85 0.73 0.60 0.52 0.48 0.45 0.45 0.42 0.40 0.39 0.36 0.33 0.31 0.31 0.30 0.27 0.26 0.23 0.24 0.24 0.24 0.23 0.21 0.19 0.19 0.19 0.18 0.17 0.15 0.12 0.10 0.10 0.09 0.09 0.10 0.10 0.11 0.10 0.12 0.14 0.16 0.19 0.22
0.90 0.74 0.64 0.57 0.50 0.46 0.47 0.45 0.38 0.31 0.27 0.23 0.20 0.21 0.20 0.20 0.19 0.18 0.18 0.18 0.18 0.18 0.16 0.15 0.14 0.14 0.13 0.12 0.09 0.07 0.06 0.06 0.06 0.07 0.10 0.12 0.13 0.15 0.19 0.20 0.24 0.29 0.32
0.94 0.86 0.77 0.67 0.56 0.48 0.45 0.43 0.39 0.33 0.28 0.25 0.22 0.21 0.19 0.19 0.19 0.19 0.19 0.18 0.17 0.15 0.14 0.13 0.12 0.09 0.07 0.04 0.02 0.02 0.03 0.04 0.06 0.07 0.10 0.11 0.12 0.17 0.19 0.20 0.25 0.33 0.40
1.19 1.15 0.99 0.80 0.67 0.60 0.54 0.49 0.44 0.36 0.28 0.26 0.27 0.26 0.25 0.24 0.24 0.23 0.21 0.20 0.17 0.15 0.12 0.09 0.07 0.05 0.03 0.02 0.02 0.01 0.02 0.04 0.08 0.11 0.12 0.09 0.08 0.09 0.10 0.14 0.21 0.31 0.40
1.25 1.12 1.00 0.86 0.76 0.71 0.63 0.56 0.51 0.42 0.36 0.35 0.32 0.29 0.27 0.27 0.26 0.22 0.19 0.16 0.13 0.11 0.10 0.07 0.06 0.06 0.04 0.01 0.01 0.01 0.02 0.07 0.12 0.15 0.15 0.11 0.09 0.13 0.18 0.17 0.18 0.27 0.33
1.39 1.27 1.08 0.95 0.82 0.71 0.61 0.53 0.47 0.43 0.40 0.39 0.36 0.31 0.27 0.25 0.22 0.18 0.16 0.13 0.11 0.10 0.10 0.08 0.07 0.08 0.04 0.00 0.00 0.01 0.04 0.10 0.12 0.13 0.15 0.20 0.23 0.17 0.14 0.15 0.26 0.37 0.45
1.28 1.17 1.01 0.91 0.80 0.68 0.57 0.48 0.44 0.41 0.39 0.37 0.30 0.24 0.18 0.16 0.14 0.13 0.12 0.12 0.12 0.11 0.09 0.08 0.09 0.11 0.08 0.01 0.00 0.01 0.05 0.09 0.10 0.10 0.12 0.14 0.20 0.14 0.12 0.21 0.38 0.47 0.59
0.88 0.83 0.79 0.74 0.66 0.57 0.47 0.44 0.42 0.36 0.30 0.23 0.18 0.13 0.09 0.09 0.09 0.10 0.11 0.11 0.12 0.11 0.08 0.08 0.10 0.11 0.10 0.02 0.00 0.01 0.05 0.10 0.11 0.15 0.18 0.14 0.11 0.11 0.15 0.24 0.44 0.60 0.67
0.71 0.68 0.64 0.62 0.55 0.44 0.37 0.35 0.32 0.27 0.18 0.13 0.10 0.07 0.05 0.06 0.07 0.10 0.13 0.14 0.14 0.14 0.12 0.13 0.13 0.11 0.07 0.03 0.00 0.01 0.04 0.08 0.13 0.18 0.23 0.24 0.16 0.16 0.18 0.29 0.49 0.67 0.69
0.70 0.64 0.58 0.51 0.41 0.32 0.29 0.30 0.26 0.16 0.11 0.09 0.08 0.07 0.05 0.03 0.05 0.12 0.16 0.15 0.16 0.17 0.17 0.17 0.15 0.12 0.09 0.05 0.01 0.00 0.01 0.04 0.16 0.29 0.29 0.28 0.25 0.22 0.27 0.40 0.59 0.73 0.87
0.69 0.60 0.48 0.39 0.30 0.24 0.24 0.25 0.20 0.12 0.10 0.12 0.12 0.10 0.07 0.06 0.07 0.12 0.16 0.16 0.16 0.15 0.13 0.13 0.14 0.13 0.13 0.09 0.02 0.01 0.02 0.05 0.15 0.29 0.34 0.33 0.30 0.37 0.56 0.68 0.79 0.91 1.06
0.51 0.42 0.34 0.27 0.21 0.16 0.14 0.14 0.10 0.08 0.10 0.13 0.12 0.10 0.11 0.12 0.12 0.13 0.10 0.11 0.12 0.10 0.09 0.11 0.13 0.16 0.17 0.10 0.06 0.07 0.08 0.11 0.17 0.25 0.39 0.47 0.50 0.64 0.84 0.97 1.06 1.13 1.14
0.31 0.27 0.24 0.20 0.14 0.10 0.08 0.06 0.05 0.06 0.11 0.13 0.12 0.10 0.10 0.12 0.18 0.15 0.07 0.05 0.06 0.02 0.05 0.08 0.11 0.16 0.17 0.08 0.06 0.09 0.12 0.15 0.20 0.25 0.40 0.56 0.62 0.76 0.91 1.02 1.06 1.08 1.07
0.23 0.20 0.17 0.13 0.08 0.06 0.05 0.04 0.03 0.04 0.11 0.15 0.12 0.07 0.06 0.09 0.12 0.15 0.14 0.05 0.01 0.00 0.01 0.03 0.05 0.07 0.09 0.07 0.06 0.08 0.12 0.17 0.23 0.30 0.50 0.62 0.65 0.73 0.83 0.92 0.99 0.98 0.93